[[{"header":{"parameterUnit":"m.s-1","parameterCategory":1,"la1":30.2991,"la2":30.254,"lo1":-89.0895,"lo2":-89.0444,"dy":0.0017,"dx":0.0017,"nx":28,"ny":28,"refTime":"2024-02-19T03:00:00:Z","depth":0,"parameterNumber":2,"parameterNumberName":"U-component_of_WINDS"},"data":[0,0,0,0,0,0,0,0,0,0,0,0,0,0,0,0,0,0,0,0,0,0,0,0,0,0,0,0,0,0,0,0,0,0,0,0,0,0,0,0,0,0,0,0,0,0,0,0,0,0,0,0,0,0,0,0,0,0,0.3428,0.3428,0,0.3399,0.3399,0.3398,0.3385,0.3385,0.3385,0.3385,0.3354,0.3353,0.3352,0,0,0,0,0,0,0,0,0,0,0,0,0,0.3473,0.3472,0.3428,0.3428,0.3428,0.3399,0.3399,0.3398,0.3385,0.3385,0.3385,0.3385,0.3354,0.3353,0.3352,0,0,0,0,0,0,0,0,0,0,0,0,0,0.3449,0.3472,0.3428,0.3418,0.3416,0.3399,0.3399,0.3398,0.3385,0.3385,0.3385,0.3385,0.3354,0.3353,0.3352,0.3343,0,0,0.3348,0.3347,0,0,0,0,0,0,0,0,0.3451,0.3448,0.3419,0.3418,0.3417,0.3396,0.3403,0.338,0.3385,0.3397,0.3385,0.3385,0.3368,0.3365,0.336,0.3342,0.334,0.3348,0.3347,0.3346,0.3346,0,0,0,0,0,0,0,0.3452,0.3449,0.3417,0.3419,0.3417,0.3414,0.3411,0.3398,0.3382,0.3396,0.3395,0.3392,0.3367,0.3361,0.3359,0.334,0.3348,0.3347,0.3346,0.3345,0.3314,0.3314,0,0,0,0,0,0,0.3456,0.345,0.3418,0.3416,0.3434,0.3413,0.341,0.3402,0.3382,0.3379,0.3391,0.3391,0.3363,0.336,0.3358,0.3347,0.3347,0.3345,0.3345,0.3314,0.3314,0.3314,0,0,0,0,0,0,0.3457,0.3453,0.3419,0.3433,0.3428,0.3412,0.3404,0.3402,0.3396,0.3379,0.3376,0.3388,0.3363,0.3359,0.3347,0.3345,0.3345,0.3344,0.3314,0.3314,0.3314,0.3324,0,0,0,0,0,0,0.3458,0.3453,0.345,0.3433,0.3427,0.3409,0.3404,0.3401,0.3394,0.3393,0.3375,0.3373,0.3363,0.3349,0.3346,0.3343,0.3343,0.3314,0.3314,0.3314,0.3324,0.3324,0.3325,0,0,0,0,0,0.346,0.3453,0.345,0.3446,0.3423,0.3409,0.3406,0.3395,0.3394,0.339,0.338,0.3373,0.3346,0.3348,0.3344,0.3341,0.3314,0.3314,0.3314,0.3323,0.3324,0.3325,0,0,0,0,0,0,0.3469,0.3451,0.3446,0.3434,0.3423,0.3406,0.3401,0.3396,0.3384,0.3384,0.3371,0.3367,0.3356,0.3347,0.335,0.3332,0.333,0.3329,0.3338,0.3339,0.3339,0.3341,0.3341,0,0,0,0,0,0.347,0.3461,0.3445,0.3435,0.343,0.3417,0.341,0.3403,0.3391,0.3386,0.3375,0.3363,0.3352,0.3345,0.3334,0.3323,0.3319,0.3319,0.332,0.332,0.3319,0.3314,0.3314,0.3314,0.3314,0.3314,0,0,0.3471,0.346,0.3455,0.3437,0.3428,0.3418,0.3413,0.3403,0.3396,0.3384,0.3372,0.3364,0.335,0.3338,0.3333,0.3331,0.3319,0.332,0.332,0.3319,0.3314,0.3314,0.3314,0.3314,0.3314,0.3314,0,0,0.3469,0.3459,0.3451,0.3442,0.3429,0.342,0.3418,0.3402,0.3397,0.3384,0.3376,0.3368,0.3349,0.3339,0.3332,0.3328,0.3322,0.3325,0.3327,0.3322,0.3322,0.3322,0.3321,0.3321,0.3324,0.3325,0.3325,0,0.3472,0.3458,0.3447,0.3438,0.3431,0.3422,0.3413,0.3405,0.3388,0.3384,0.3382,0.3359,0.3349,0.3336,0.3335,0.3329,0.3327,0.3327,0.3323,0.3323,0.3323,0.3322,0.3321,0.3325,0.3325,0.3325,0.3325,0,0.3463,0.3453,0.3448,0.3433,0.3425,0.3416,0.3405,0.3398,0.3393,0.3384,0.3373,0.336,0.3347,0.3344,0.3337,0.333,0.3329,0.3326,0.3323,0.3323,0.3322,0.3322,0.3326,0.3325,0.3325,0.3325,0,0,0.3464,0.3445,0.3443,0.3437,0.3422,0.3414,0.3405,0.3393,0.3388,0.3377,0.337,0.3355,0.3352,0.3344,0.3336,0.3332,0.333,0.3329,0.3328,0.333,0.3322,0.3325,0.3325,0.3327,0.3327,0.3326,0.3324,0,0.346,0.3444,0.3435,0.3423,0.3414,0.3406,0.3399,0.3389,0.3381,0.3373,0.3364,0.3354,0.3351,0.3346,0.3341,0.3332,0.3329,0.3332,0.332,0.3319,0.3323,0.3324,0.3327,0.3325,0.3323,0.3323,0.3323,0,0.3452,0.3443,0.343,0.3417,0.3413,0.3406,0.3395,0.3387,0.3376,0.3371,0.3363,0.3356,0.3347,0.3345,0.3333,0.3335,0.333,0.3325,0.3324,0.3323,0.3321,0.3322,0.3324,0.3323,0.3322,0.3322,0.3322,0,0.3455,0.3439,0.3429,0.3424,0.3409,0.3405,0.3398,0.3387,0.3381,0.3371,0.3367,0.3356,0.335,0.3342,0.3333,0.3332,0.3321,0.3319,0.3317,0.3317,0.3314,0.3315,0.3315,0.3311,0.3311,0.3311,0.3311,0,0.3451,0.3443,0.3431,0.3425,0.3417,0.3407,0.3399,0.3392,0.3383,0.3375,0.3368,0.3361,0.3349,0.3341,0.3334,0.3325,0.3322,0.3318,0.3316,0.3318,0.3319,0.3314,0.3314,0.3311,0.3311,0.3311,0.3311,0,0.3452,0.3443,0.3433,0.342,0.3416,0.3411,0.34,0.3394,0.3387,0.3378,0.3375,0.3364,0.3354,0.3344,0.3331,0.3326,0.3317,0.3315,0.3321,0.332,0.3319,0.3319,0.3316,0.3316,0.3313,0.3313,0.3313,0,0.345,0.3444,0.3431,0.3426,0.342,0.3412,0.3406,0.3397,0.3391,0.3379,0.3375,0.3365,0.3356,0.3341,0.3331,0.3322,0.3319,0.3318,0.3317,0.332,0.3319,0.332,0.3319,0.3319,0.3319,0.3319,0.3319,0,0.3447,0.3444,0.3435,0.3426,0.3419,0.3411,0.3403,0.3399,0.3388,0.3382,0.3373,0.3366,0.3354,0.3344,0.3333,0.3326,0.3321,0.332,0.3319,0.3321,0.3325,0.3323,0.3322,0.3319,0.3319,0.3319,0.3319,0.3319,0.3447,0.3442,0.3432,0.3424,0.3417,0.341,0.3404,0.3397,0.3389,0.3378,0.3373,0.3364,0.3354,0.334,0.3333,0.3326,0.3324,0.3323,0.3322,0.3322,0.3323,0.3327,0.3324,0.3324,0.3324,0.3324,0.3324,0,0.3444,0.3438,0.343,0.3419,0.3413,0.3409,0.34,0.3395,0.3387,0.3379,0.3371,0.3361,0.3352,0.3343,0.3333,0.3329,0.3327,0.3327,0.3327,0.3326,0.3325,0.3327,0.3329,0.3329,0.3329,0.3329,0.3329,0.3329,0.3442,0.3433,0.3429,0.3417,0.3411,0.3403,0.3398,0.3391,0.3385,0.3374,0.3367,0.3361,0.3352,0.3343,0.3335,0.3332,0.3329,0.333,0.3327,0.3326,0.3326,0.3325,0.3327,0.333,0.333,0.3328,0.3328,0.3328]},{"header":{"parameterUnit":"m.s-1","parameterCategory":1,"la1":30.2991,"la2":30.254,"lo1":-89.0895,"lo2":-89.0444,"dy":0.0017,"dx":0.0017,"nx":28,"ny":28,"refTime":"2024-02-19T03:00:00:Z","depth":0,"parameterNumber":3,"parameterNumberName":"V-component_of_WINDS"},"data":[0,0,0,0,0,0,0,0,0,0,0,0,0,0,0,0,0,0,0,0,0,0,0,0,0,0,0,0,0,0,0,0,0,0,0,0,0,0,0,0,0,0,0,0,0,0,0,0,0,0,0,0,0,0,0,0,0,0,-5.5789,-5.579,0,-5.588,-5.5881,-5.5882,-5.5875,-5.5873,-5.5872,-5.5871,-5.5958,-5.5961,-5.5965,0,0,0,0,0,0,0,0,0,0,0,0,0,-5.5604,-5.5608,-5.5789,-5.579,-5.5791,-5.588,-5.5881,-5.5883,-5.5875,-5.5873,-5.5872,-5.587,-5.5957,-5.5961,-5.5965,0,0,0,0,0,0,0,0,0,0,0,0,0,-5.5689,-5.5609,-5.5789,-5.5798,-5.58,-5.588,-5.5881,-5.5883,-5.5875,-5.5873,-5.5871,-5.5869,-5.5955,-5.5961,-5.5966,-5.604,0,0,-5.5982,-5.5985,0,0,0,0,0,0,0,0,-5.5684,-5.5695,-5.5796,-5.5798,-5.58,-5.5864,-5.5848,-5.5935,-5.5876,-5.5847,-5.5871,-5.5868,-5.5928,-5.5935,-5.5957,-5.6044,-5.6048,-5.5983,-5.5986,-5.5988,-5.599,0,0,0,0,0,0,0,-5.5678,-5.5691,-5.5825,-5.5797,-5.58,-5.5797,-5.5807,-5.5865,-5.5897,-5.5849,-5.5849,-5.586,-5.5929,-5.5952,-5.5959,-5.6049,-5.5983,-5.5987,-5.5991,-5.5993,-5.6203,-5.6205,0,0,0,0,0,0,-5.5671,-5.5687,-5.5822,-5.5828,-5.5736,-5.5802,-5.5813,-5.5846,-5.5897,-5.5903,-5.5862,-5.5859,-5.5943,-5.5953,-5.5962,-5.6053,-5.5988,-5.5993,-5.5996,-5.6201,-5.6204,-5.6206,0,0,0,0,0,0,-5.5667,-5.5683,-5.5818,-5.5757,-5.5774,-5.5807,-5.5844,-5.5848,-5.5872,-5.5906,-5.5912,-5.5879,-5.5942,-5.5954,-5.6021,-5.6056,-5.5996,-5.6001,-5.6198,-5.6202,-5.6205,-5.6236,0,0,0,0,0,0,-5.5662,-5.5682,-5.5711,-5.5758,-5.5778,-5.5878,-5.5846,-5.5852,-5.5882,-5.5879,-5.5925,-5.593,-5.5942,-5.6013,-5.6027,-5.6063,-5.6005,-5.6195,-5.62,-5.6204,-5.6232,-5.624,-5.6247,0,0,0,0,0,-5.5655,-5.5714,-5.5712,-5.5729,-5.5815,-5.588,-5.5891,-5.5905,-5.5884,-5.5914,-5.5936,-5.5928,-5.605,-5.602,-5.6035,-5.6073,-5.6193,-5.6198,-5.6204,-5.6229,-5.6239,-5.6247,0,0,0,0,0,0,-5.5667,-5.572,-5.5719,-5.5795,-5.5834,-5.5879,-5.5916,-5.5915,-5.5957,-5.5953,-5.5967,-5.5977,-5.6045,-5.6066,-5.6031,-5.6148,-5.6119,-5.6127,-5.6133,-5.6142,-5.615,-5.6144,-5.6009,0,0,0,0,0,-5.5679,-5.5729,-5.5772,-5.5835,-5.5855,-5.5882,-5.5911,-5.5919,-5.5958,-5.5973,-5.6,-5.6037,-5.6084,-5.6114,-5.6159,-5.6235,-5.6245,-5.6268,-5.6276,-5.6282,-5.6289,-5.6333,-5.6344,-5.6224,-5.6224,-5.6224,0,0,-5.5704,-5.5739,-5.5769,-5.5839,-5.5869,-5.592,-5.5896,-5.5949,-5.5986,-5.598,-5.6047,-5.6068,-5.611,-5.6183,-5.6216,-5.6202,-5.6325,-5.6289,-5.6293,-5.6297,-5.6339,-5.6351,-5.6361,-5.6227,-5.6227,-5.6226,0,0,-5.5775,-5.5806,-5.5864,-5.5895,-5.5943,-5.5961,-5.5975,-5.6021,-5.6036,-5.6103,-5.6101,-5.6144,-5.6224,-5.6254,-5.628,-5.6366,-5.636,-5.6379,-5.6419,-5.6461,-5.6471,-5.6479,-5.651,-5.6521,-5.6386,-5.6387,-5.6387,0,-5.5798,-5.5876,-5.5892,-5.5948,-5.5979,-5.5979,-5.6037,-5.6066,-5.6125,-5.6145,-5.6129,-5.6232,-5.6259,-5.634,-5.6361,-5.6382,-5.6398,-5.6374,-5.6468,-5.6477,-5.6485,-5.6515,-5.6527,-5.6389,-5.6388,-5.6388,-5.6388,0,-5.5904,-5.5957,-5.5998,-5.6058,-5.6093,-5.6149,-5.6174,-5.6207,-5.6212,-5.6232,-5.6301,-5.6335,-5.6388,-5.6407,-5.6411,-5.6489,-5.6479,-5.6465,-5.6436,-5.6498,-5.6527,-5.6538,-5.6392,-5.6391,-5.639,-5.639,0,0,-5.5983,-5.6054,-5.6069,-5.6097,-5.6151,-5.6192,-5.6248,-5.6302,-5.6331,-5.6372,-5.6419,-5.6488,-5.6477,-5.6507,-5.6514,-5.6551,-5.6618,-5.6533,-5.6535,-5.6549,-5.6707,-5.6718,-5.6731,-5.6615,-5.6618,-5.6619,-5.6704,0,-5.606,-5.6163,-5.618,-5.6269,-5.632,-5.6321,-5.637,-5.6408,-5.6428,-5.6473,-5.6494,-5.6544,-5.6524,-5.6543,-5.6579,-5.6603,-5.665,-5.6596,-5.6659,-5.6661,-5.6649,-5.6745,-5.6756,-5.6834,-5.6715,-5.6717,-5.6718,0,-5.6163,-5.6211,-5.6306,-5.6355,-5.6377,-5.6421,-5.6473,-5.6516,-5.6558,-5.657,-5.6605,-5.6609,-5.6667,-5.6635,-5.6715,-5.6678,-5.6704,-5.672,-5.6723,-5.673,-5.6694,-5.6755,-5.686,-5.6872,-5.6736,-5.6735,-5.6733,0,-5.6213,-5.63,-5.6369,-5.6393,-5.6452,-5.6483,-5.6508,-5.655,-5.6582,-5.6626,-5.6648,-5.6697,-5.6725,-5.6763,-5.678,-5.6755,-5.6859,-5.6828,-5.687,-5.687,-5.6892,-5.689,-5.7003,-5.6908,-5.6908,-5.6908,-5.6907,0,-5.6298,-5.6356,-5.6393,-5.6435,-5.6501,-5.652,-5.6584,-5.6608,-5.6645,-5.6691,-5.6695,-5.6738,-5.6758,-5.6803,-5.6817,-5.6882,-5.6893,-5.6904,-5.6907,-5.6905,-5.6903,-5.6922,-5.6917,-5.6911,-5.691,-5.6909,-5.6909,0,-5.6364,-5.6392,-5.6467,-5.6518,-5.6532,-5.6578,-5.6621,-5.6661,-5.6682,-5.6741,-5.6756,-5.6788,-5.6842,-5.6864,-5.6929,-5.6938,-5.7013,-5.7011,-5.7,-5.7,-5.7042,-5.7038,-5.7171,-5.7189,-5.7082,-5.7083,-5.7083,0,-5.6417,-5.6463,-5.6519,-5.6552,-5.658,-5.6632,-5.6666,-5.6687,-5.6721,-5.6775,-5.6809,-5.6864,-5.691,-5.6996,-5.7024,-5.7074,-5.7074,-5.7117,-5.7082,-5.7078,-5.7076,-5.7074,-5.7079,-5.7124,-5.7125,-5.7126,-5.7127,0,-5.6507,-5.652,-5.657,-5.6625,-5.6667,-5.671,-5.6753,-5.6779,-5.6806,-5.6845,-5.6903,-5.6938,-5.7007,-5.7061,-5.7114,-5.7138,-5.7137,-5.7138,-5.7151,-5.7148,-5.714,-5.7146,-5.7018,-5.7135,-5.7134,-5.7133,-5.7133,-5.7132,-5.6569,-5.6611,-5.6659,-5.6715,-5.675,-5.679,-5.6832,-5.686,-5.6909,-5.6968,-5.6977,-5.7039,-5.7081,-5.7152,-5.7179,-5.7227,-5.7215,-5.7233,-5.7237,-5.7242,-5.7245,-5.7133,-5.7236,-5.7236,-5.7235,-5.7235,-5.7235,0,-5.6661,-5.6693,-5.6744,-5.6806,-5.685,-5.6848,-5.6896,-5.6933,-5.6988,-5.7029,-5.7075,-5.7141,-5.7194,-5.7228,-5.7282,-5.7313,-5.7314,-5.7327,-5.7325,-5.7331,-5.7252,-5.7236,-5.7325,-5.7325,-5.7325,-5.7325,-5.7325,-5.7325,-5.6714,-5.6785,-5.6803,-5.6891,-5.6922,-5.6984,-5.7012,-5.7049,-5.7083,-5.7158,-5.7204,-5.7226,-5.7264,-5.7321,-5.737,-5.7378,-5.7398,-5.7412,-5.7419,-5.7345,-5.7336,-5.7327,-5.7312,-5.7416,-5.7416,-5.7494,-5.7495,-5.7495]}]]